• In Lithuania
  • List of Countries
  • For 7 days
  • Water Temperature
  • Satellite Maps
  • Weather Map
  • Weather Widgets
  • user-avatar
    Login

    Hourly Weather Ganja

    Today, 21 October, Saturday

    Time Temperature Precipitation Wind Pressure Humidity
    00:00 +15°C° 0 mm 1 mps 728 mmHg 63%
    01:00 +15°C° 0 mm 1 mps 728 mmHg 64%
    02:00 +14°C° 0 mm 1 mps 727 mmHg 65%
    03:00 +14°C° 0 mm 1 mps 727 mmHg 66%
    04:00 +14°C° 0 mm 1 mps 727 mmHg 66%
    05:00 +13°C° 0 mm 1 mps 727 mmHg 65%
    06:00 +13°C° 0 mm 1 mps 727 mmHg 65%
    07:00 +15°C° 0 mm 1 mps 727 mmHg 61%
    08:00 +16°C° 0 mm 1 mps 727 mmHg 56%
    09:00 +19°C° 0 mm 1 mps 727 mmHg 52%
    10:00 +20°C° 0 mm 1 mps 726 mmHg 50%
    11:00 +20°C° 0 mm 1 mps 726 mmHg 48%
    12:00 +21°C° 0 mm 1 mps 726 mmHg 45%
    13:00 +22°C° 0 mm 1 mps 725 mmHg 45%
    14:00 +22°C° 0 mm 1 mps 725 mmHg 45%
    15:00 +22°C° 0 mm 1 mps 725 mmHg 45%
    16:00 +21°C° 0 mm 1 mps 725 mmHg 50%
    17:00 +20°C° 0 mm 1 mps 725 mmHg 55%
    18:00 +18°C° 0 mm 1 mps 725 mmHg 61%
    19:00 +18°C° 0 mm 1 mps 725 mmHg 62%
    20:00 +18°C° 0 mm 1 mps 725 mmHg 62%
    21:00 +15°C° 0 mm 0 mps 724 mmHg 63%
    22:00 +16°C° 0 mm 1 mps 724 mmHg 63%
    23:00 +15°C° 0 mm 1 mps 724 mmHg 63%

    Tomorrow, 22 October, Sunday

    Time Temperature Precipitation Wind Pressure Humidity
    00:00 +15°C° 0 mm 1 mps 724 mmHg 64%
    01:00 +15°C° 0 mm 1 mps 724 mmHg 62%
    02:00 +14°C° 0 mm 1 mps 724 mmHg 60%
    03:00 +14°C° 0 mm 1 mps 724 mmHg 58%
    04:00 +14°C° 0 mm 2 mps 724 mmHg 56%
    05:00 +14°C° 0 mm 2 mps 724 mmHg 54%
    06:00 +13°C° 0 mm 2 mps 724 mmHg 52%
    07:00 +15°C° 0 mm 2 mps 724 mmHg 47%
    08:00 +16°C° 0 mm 2 mps 723 mmHg 43%
    09:00 +18°C° 0 mm 2 mps 723 mmHg 38%
    10:00 +19°C° 0 mm 3 mps 723 mmHg 37%
    11:00 +20°C° 0 mm 3 mps 723 mmHg 36%
    12:00 +21°C° 0 mm 3 mps 722 mmHg 35%
    13:00 +21°C° 0 mm 3 mps 722 mmHg 34%
    14:00 +21°C° 0 mm 3 mps 721 mmHg 34%
    15:00 +21°C° 0 mm 3 mps 721 mmHg 33%
    16:00 +20°C° 0 mm 2 mps 721 mmHg 37%
    17:00 +18°C° 0 mm 2 mps 721 mmHg 40%
    18:00 +18°C° 0 mm 1 mps 721 mmHg 44%
    19:00 +16°C° 0 mm 2 mps 721 mmHg 44%
    20:00 +16°C° 0 mm 2 mps 721 mmHg 44%
    21:00 +16°C° 0 mm 2 mps 721 mmHg 44%
    22:00 +15°C° 0 mm 2 mps 721 mmHg 44%
    23:00 +14°C° 0 mm 3 mps 721 mmHg 44%

    Day after tomorrow, 23 October, Monday

    Time Temperature Precipitation Wind Pressure Humidity
    00:00 +14°C° 0 mm 3 mps 722 mmHg 44%
    01:00 +13°C° 0 mm 3 mps 722 mmHg 44%
    02:00 +13°C° 0 mm 3 mps 722 mmHg 45%
    03:00 +13°C° 0 mm 4 mps 722 mmHg 45%
    04:00 +13°C° 0 mm 4 mps 722 mmHg 46%
    05:00 +12°C° 0 mm 3 mps 722 mmHg 47%
    06:00 +12°C° 0 mm 3 mps 723 mmHg 48%
    07:00 +14°C° 0 mm 4 mps 723 mmHg 45%
    08:00 +15°C° 0 mm 4 mps 724 mmHg 42%
    09:00 +18°C° 0 mm 4 mps 724 mmHg 39%
    10:00 +19°C° 0 mm 4 mps 724 mmHg 37%
    11:00 +20°C° 0 mm 4 mps 724 mmHg 35%
    12:00 +21°C° 0 mm 4 mps 724 mmHg 34%
    13:00 +21°C° 0 mm 3 mps 724 mmHg 34%
    14:00 +21°C° 0 mm 2 mps 724 mmHg 34%
    15:00 +21°C° 0 mm 2 mps 724 mmHg 35%
    16:00 +20°C° 0 mm 2 mps 725 mmHg 39%
    17:00 +18°C° 0 mm 2 mps 725 mmHg 43%
    18:00 +17°C° 0 mm 2 mps 726 mmHg 48%
    19:00 +16°C° 0 mm 3 mps 726 mmHg 53%
    20:00 +15°C° 0 mm 4 mps 726 mmHg 58%
    21:00 +14°C° 0 mm 5 mps 727 mmHg 64%
    22:00 +13°C° 0 mm 5 mps 727 mmHg 67%
    23:00 +13°C° 0 mm 5 mps 727 mmHg 70%

    24 October, Tuesday

    Time Temperature Precipitation Wind Pressure Humidity
    00:00 +12°C° 0 mm 5 mps 727 mmHg 73%
    01:00 +12°C° 0 mm 4 mps 727 mmHg 75%
    02:00 +11°C° 0 mm 3 mps 727 mmHg 76%
    03:00 +12°C° 0 mm 2 mps 727 mmHg 78%
    04:00 +12°C° 0 mm 2 mps 727 mmHg 79%
    05:00 +12°C° 0 mm 1 mps 727 mmHg 81%
    06:00 +10°C° 0 mm 0 mps 727 mmHg 82%
    07:00 +12°C° 0 mm 1 mps 727 mmHg 78%
    08:00 +13°C° 0 mm 1 mps 727 mmHg 73%
    09:00 +14°C° 0 mm 1 mps 727 mmHg 68%
    10:00 +15°C° 0 mm 1 mps 727 mmHg 64%
    11:00 +16°C° 0 mm 1 mps 726 mmHg 60%
    12:00 +18°C° 0 mm 1 mps 726 mmHg 56%
    13:00 +18°C° 0 mm 1 mps 726 mmHg 55%
    14:00 +19°C° 0 mm 1 mps 726 mmHg 53%
    15:00 +19°C° 0 mm 1 mps 725 mmHg 52%
    16:00 +18°C° 0 mm 1 mps 726 mmHg 56%
    17:00 +16°C° 0 mm 1 mps 726 mmHg 61%
    18:00 +15°C° 0 mm 1 mps 727 mmHg 65%
    19:00 +15°C° 0 mm 1 mps 727 mmHg 66%
    20:00 +14°C° 0 mm 1 mps 727 mmHg 66%
    21:00 +14°C° 0 mm 1 mps 728 mmHg 67%
    22:00 +14°C° 0 mm 1 mps 728 mmHg 68%
    23:00 +13°C° 0 mm 1 mps 728 mmHg 70%

    25 October, Wednesday

    Time Temperature Precipitation Wind Pressure Humidity
    00:00 +13°C° 0 mm 1 mps 728 mmHg 72%
    01:00 +13°C° 0 mm 1 mps 728 mmHg 74%
    02:00 +13°C° 0 mm 1 mps 728 mmHg 75%
    03:00 +12°C° 0 mm 1 mps 728 mmHg 77%
    04:00 +12°C° 0 mm 1 mps 728 mmHg 77%
    05:00 +12°C° 0 mm 1 mps 728 mmHg 77%
    06:00 +12°C° 0 mm 1 mps 728 mmHg 77%
    07:00 +14°C° 0 mm 1 mps 729 mmHg 71%
    08:00 +15°C° 0 mm 1 mps 729 mmHg 66%
    09:00 +16°C° 0 mm 1 mps 729 mmHg 60%
    10:00 +18°C° 0 mm 1 mps 729 mmHg 56%
    11:00 +20°C° 0 mm 1 mps 728 mmHg 52%
    12:00 +20°C° 0 mm 2 mps 728 mmHg 47%
    13:00 +20°C° 0 mm 2 mps 728 mmHg 46%
    14:00 +20°C° 0 mm 2 mps 728 mmHg 46%
    15:00 +21°C° 0 mm 2 mps 728 mmHg 45%
    16:00 +19°C° 0 mm 2 mps 728 mmHg 50%
    17:00 +18°C° 0 mm 2 mps 728 mmHg 56%
    18:00 +18°C° 0 mm 1 mps 728 mmHg 62%
    19:00 +16°C° 0 mm 1 mps 729 mmHg 64%
    20:00 +16°C° 0 mm 2 mps 729 mmHg 66%
    21:00 +16°C° 0 mm 2 mps 729 mmHg 68%
    22:00 +15°C° 0 mm 1 mps 729 mmHg 70%
    23:00 +15°C° 0 mm 1 mps 729 mmHg 73%

    26 October, Thursday

    Time Temperature Precipitation Wind Pressure Humidity
    00:00 +14°C° 0 mm 1 mps 729 mmHg 75%
    01:00 +14°C° 0 mm 1 mps 729 mmHg 76%
    02:00 +14°C° 0 mm 1 mps 728 mmHg 77%
    03:00 +14°C° 0 mm 1 mps 728 mmHg 78%
    04:00 +13°C° 0 mm 1 mps 728 mmHg 77%
    05:00 +13°C° 0 mm 2 mps 728 mmHg 75%
    06:00 +13°C° 0 mm 2 mps 728 mmHg 74%
    07:00 +15°C° 0 mm 2 mps 728 mmHg 68%
    08:00 +17°C° 0 mm 2 mps 727 mmHg 62%
    09:00 +18°C° 0 mm 2 mps 727 mmHg 55%
    10:00 +19°C° 0 mm 2 mps 727 mmHg 49%
    11:00 +21°C° 0 mm 2 mps 726 mmHg 43%
    12:00 +23°C° 0 mm 2 mps 726 mmHg 37%
    13:00 +23°C° 0 mm 2 mps 725 mmHg 34%
    14:00 +24°C° 0 mm 2 mps 725 mmHg 32%
    15:00 +24°C° 0 mm 2 mps 725 mmHg 29%
    16:00 +23°C° 0 mm 2 mps 725 mmHg 32%
    17:00 +20°C° 0 mm 2 mps 725 mmHg 35%
    18:00 +19°C° 0 mm 2 mps 725 mmHg 38%
    19:00 +19°C° 0 mm 3 mps 725 mmHg 38%
    20:00 +18°C° 0 mm 3 mps 725 mmHg 39%
    21:00 +18°C° 0 mm 3 mps 725 mmHg 39%
    22:00 +18°C° 0 mm 4 mps 725 mmHg 39%
    23:00 +17°C° 0 mm 4 mps 725 mmHg 40%
    Show more